Location: Bridgewater
(44.3670°N, 64.5170°W)
Time: 22:55:05
(UTC-03:00)

Amateur Radio Satellites - All Passes

Search period start: 19 September 2014 22:25
Search period end: 20 September 2014 22:25
Location: Bridgewater, 44.3670°N, 64.5170°W

Satellite Date Start Highest point End Downlink Frequencies (MHz)
Time Altitude Azimuth
UKube-1 19 Sep 22:37:32 22:41:29 34° 262° (W) 22:45:27 145.840 MHz, 145.915 MHz
SO-50 19 Sep 23:03:14 23:07:40 64° 121° (ESE) 23:12:14 436.795 FM
Sapphire 19 Sep 23:10:54 23:15:16 25° 252° (WSW) 23:19:36 437.095 MHz 1200 baud AX-25 AFSK
KITSAT 1 19 Sep 23:37:58 23:43:18 18° 341° (NNW) 23:48:37 435.175 FM
PCSat 19 Sep 23:39:20 23:41:56 14° 257° (WSW) 23:44:32 145.825 MHz
FUNcube-1 19 Sep 23:47:24 23:50:58 24° 267° (W) 23:54:37 145.950 - 145.970 MHz USB
Saudisat 1A 20 Sep 00:18:30 00:19:51 11° 29° (NNE) 00:21:13 436.775 MHz
UOSAT-12 20 Sep 00:40:18 00:44:47 52° 119° (ESE) 00:49:22 437.025 FM, 437.400 FM
SO-50 20 Sep 00:45:08 00:48:39 22° 322° (NW) 00:52:15 436.795 FM
Oscar 16 20 Sep 01:28:29 01:30:06 11° 87° (E) 01:31:43 437.025 USB, Beacon 2401.1428
KITSAT 1 20 Sep 01:37:42 01:42:31 16° 12° (NNE) 01:47:20 435.175 FM
Saudisat 1A 20 Sep 01:56:11 02:00:30 49° 50° (NE) 02:04:47 436.775 MHz
ITAMSAT 1 20 Sep 02:11:56 02:14:00 12° 88° (E) 02:16:04 435.822 SSB
Uribyol 2 20 Sep 02:15:28 02:18:16 14° 89° (E) 02:21:04 436.500 FM
UOSAT-12 20 Sep 02:21:19 02:25:13 26° 319° (NW) 02:29:11 437.025 FM, 437.400 FM
Oscar 19 20 Sep 02:26:18 02:31:09 39° 98° (E) 02:35:56 437.125 CW, 437.150 USB
ISS 20 Sep 02:41:16 02:43:51 21° 136° (SE) 02:46:28 145.800 FM
AO-27 20 Sep 02:45:13 02:49:34 26° 94° (E) 02:53:53 436.795 MHz FM
JAS-1B 20 Sep 02:50:35 02:55:44 33° 96° (E) 03:00:49 435.800 - 435.900 CW/SSB
Oscar 16 20 Sep 03:04:58 03:10:11 89° 105° (ESE) 03:15:21 437.025 USB, Beacon 2401.1428
AO-Echo 20 Sep 03:15:43 03:20:30 57° 101° (E) 03:25:23 ?
KITSAT 1 20 Sep 03:33:24 03:40:45 36° 40° (NE) 03:48:02 435.175 FM
Saudisat 1A 20 Sep 03:36:28 03:39:45 21° 248° (WSW) 03:43:02 436.775 MHz
Gurwin Techsat 1B 20 Sep 03:39:02 03:44:01 39° 97° (E) 03:48:57 435.225 FM
ITAMSAT 1 20 Sep 03:48:56 03:54:11 87° 285° (WNW) 03:59:24 435.822 SSB
Uribyol 2 20 Sep 03:53:05 03:58:20 76° 286° (WNW) 04:03:32 436.500 FM
Oscar 10/S400 20 Sep 04:02:10 05:01:13 20° 246° (WSW) 07:12:31 145.825 - 145.975 CW/USB, Beacon 145.810 USB
Oscar 19 20 Sep 04:05:56 04:10:20 29° 295° (WNW) 04:14:42 437.125 CW, 437.150 USB
TMSAT-1 20 Sep 04:15:42 04:20:59 62° 101° (E) 04:26:13 436.925 FM
RS-15 20 Sep 04:16:15 04:26:29 46° 111° (ESE) 04:36:34 29.354 - 29.394 USB, Beacon 29.352 USB
ISS 20 Sep 04:17:02 04:20:20 59° 333° (NNW) 04:23:38 145.800 FM
AO-27 20 Sep 04:24:19 04:29:13 43° 292° (WNW) 04:34:07 436.795 MHz FM
Uosat F 20 Sep 04:27:51 04:30:23 14° 89° (E) 04:32:55 435.120 FM
OPAL 20 Sep 04:35:46 04:40:47 52° 68° (ENE) 04:45:51 ?
JAS-1B 20 Sep 04:41:19 04:46:30 35° 296° (WNW) 04:51:35 435.800 - 435.900 CW/SSB
Oscar 16 20 Sep 04:46:13 04:48:47 14° 303° (WNW) 04:51:21 437.025 USB, Beacon 2401.1428
AO-Echo 20 Sep 04:55:32 04:58:53 19° 298° (WNW) 05:02:17 ?
Gurwin Techsat 1B 20 Sep 05:19:16 05:23:50 30° 295° (WNW) 05:28:24 435.225 FM
AO-7 20 Sep 05:28:23 05:36:32 56° 103° (ESE) 05:44:37 29.400 - 29.500 MHz
KITSAT 1 20 Sep 05:28:43 05:36:44 68° 243° (WSW) 05:44:41 435.175 FM
ITAMSAT 1 20 Sep 05:30:27 05:32:54 14° 303° (WNW) 05:35:21 435.822 SSB
Uribyol 2 20 Sep 05:35:05 05:36:55 12° 305° (NW) 05:38:44 436.500 FM
SO-50 20 Sep 05:53:31 05:56:50 18° 36° (NE) 06:00:11 436.795 FM
ISS 20 Sep 05:54:44 05:57:31 24° 353° (N) 06:00:18 145.800 FM
TMSAT-1 20 Sep 05:56:39 06:00:26 20° 299° (WNW) 06:04:12 436.925 FM
Uosat F 20 Sep 06:04:42 06:09:44 75° 287° (WNW) 06:14:44 435.120 FM
OPAL 20 Sep 06:15:59 06:19:57 22° 265° (W) 06:23:56 ?
RS-15 20 Sep 06:27:44 06:38:33 59° 314° (NW) 06:49:22 29.354 - 29.394 USB, Beacon 29.352 USB
JAS-2 20 Sep 06:41:48 06:47:32 44° 99° (E) 06:53:58 435.800 - 435.900 CW/SSB, 435.910 FM
Hamsat 20 Sep 06:55:38 06:59:46 47° 99° (E) 07:03:49 145.90 MHz
STRAND 1 20 Sep 06:56:10 07:01:11 63° 72° (ENE) 07:06:14 ?
AO-7 20 Sep 07:21:38 07:29:01 38° 302° (WNW) 07:36:23 29.400 - 29.500 MHz
KITSAT 1 20 Sep 07:27:18 07:30:36 13° 262° (W) 07:33:53 435.175 FM
UOSAT-12 20 Sep 07:29:16 07:32:06 16° 32° (NNE) 07:34:55 437.025 FM, 437.400 FM
ISS 20 Sep 07:32:00 07:34:56 27° 13° (NNE) 07:37:51 145.800 FM
SO-50 20 Sep 07:33:14 07:38:04 89° 58° (ENE) 07:42:57 436.795 FM
Uosat F 20 Sep 07:46:17 07:47:39 11° 305° (NW) 07:49:00 435.120 FM
MaSat-1 20 Sep 07:53:38 07:57:06 19° 104° (ESE) 08:00:32 437.345 MHz
SO-67 20 Sep 08:06:27 08:09:43 38° 98° (E) 08:12:58 435.3500 MHz FM
JAS-2 20 Sep 08:27:16 08:32:31 34° 294° (WNW) 08:38:20 435.800 - 435.900 CW/SSB, 435.910 FM
Hamsat 20 Sep 08:32:32 08:35:22 18° 296° (WNW) 08:38:10 145.90 MHz
STRAND 1 20 Sep 08:37:33 08:40:49 17° 269° (W) 08:44:05 ?
RS-15 20 Sep 08:44:51 08:53:50 28° 346° (NNW) 09:02:55 29.354 - 29.394 USB, Beacon 29.352 USB
UOSAT-12 20 Sep 09:08:22 09:13:07 72° 53° (NE) 09:17:46 437.025 FM, 437.400 FM
ISS 20 Sep 09:08:36 09:11:56 84° 212° (SSW) 09:15:16 145.800 FM
SO-50 20 Sep 09:15:59 09:17:57 12° 252° (WSW) 09:19:55 436.795 FM
MaSat-1 20 Sep 09:28:27 09:33:26 62° 300° (WNW) 09:38:18 437.345 MHz
HO-68 20 Sep 09:32:36 09:38:51 31° 95° (E) 09:45:04 435.675 MHz FM
SO-67 20 Sep 09:40:36 09:42:25 14° 295° (WNW) 09:44:15 435.3500 MHz FM
Oscar 11 20 Sep 10:07:15 10:10:13 18° 92° (E) 10:13:09 145.825 FM, Beacon 2401.500 USB
UKube-1 20 Sep 10:23:50 10:27:49 34° 97° (E) 10:31:47 145.840 MHz, 145.915 MHz
ISS 20 Sep 10:46:48 10:48:10 12° 229° (SW) 10:49:31 145.800 FM
UOSAT-12 20 Sep 10:49:58 10:52:41 15° 251° (WSW) 10:55:23 437.025 FM, 437.400 FM
RS-15 20 Sep 11:01:23 11:10:46 30° 21° (NNE) 11:20:20 29.354 - 29.394 USB, Beacon 29.352 USB
MaSat-1 20 Sep 11:09:09 11:11:06 12° 319° (NW) 11:13:01 437.345 MHz
HO-68 20 Sep 11:19:54 11:26:51 55° 294° (WNW) 11:33:48 435.675 MHz FM
FUNcube-1 20 Sep 11:33:46 11:38:23 62° 101° (E) 11:42:54 145.950 - 145.970 MHz USB
Oscar 11 20 Sep 11:42:28 11:46:38 45° 289° (WNW) 11:50:46 145.825 FM, Beacon 2401.500 USB
UKube-1 20 Sep 12:00:19 12:03:52 25° 294° (WNW) 12:07:24 145.840 MHz, 145.915 MHz
Sapphire 20 Sep 12:10:43 12:15:30 33° 111° (ESE) 12:20:19 437.095 MHz 1200 baud AX-25 AFSK
Oscar 19 20 Sep 12:10:44 12:11:24 10° 54° (NE) 12:12:04 437.125 CW, 437.150 USB
PCSat 20 Sep 12:37:01 12:42:18 59° 116° (ESE) 12:47:39 145.825 MHz
Oscar 16 20 Sep 12:45:55 12:49:49 22° 62° (ENE) 12:53:44 437.025 USB, Beacon 2401.1428
AO-Echo 20 Sep 12:55:49 12:57:13 11° 57° (ENE) 12:58:37 ?
HO-68 20 Sep 13:10:19 13:13:02 13° 314° (NW) 13:15:45 435.675 MHz FM
FUNcube-1 20 Sep 13:11:24 13:14:16 16° 298° (WNW) 13:17:06 145.950 - 145.970 MHz USB
RS-15 20 Sep 13:14:26 13:25:31 70° 50° (NE) 13:37:01 29.354 - 29.394 USB, Beacon 29.352 USB
Gurwin Techsat 1B 20 Sep 13:26:24 13:27:56 11° 55° (NE) 13:29:28 435.225 FM
ITAMSAT 1 20 Sep 13:30:43 13:34:46 24° 63° (ENE) 13:38:49 435.822 SSB
Uribyol 2 20 Sep 13:34:26 13:38:42 27° 64° (ENE) 13:43:00 436.500 FM
JAS-1B 20 Sep 13:35:49 13:43:31 43° 67° (ENE) 13:50:03 435.800 - 435.900 CW/SSB
Oscar 19 20 Sep 13:44:37 13:49:46 67° 73° (ENE) 13:54:56 437.125 CW, 437.150 USB
Sapphire 20 Sep 13:53:44 13:58:49 41° 310° (NW) 14:03:57 437.095 MHz 1200 baud AX-25 AFSK
TMSAT-1 20 Sep 14:00:53 14:04:10 17° 59° (ENE) 14:07:27 436.925 FM
AO-27 20 Sep 14:04:50 14:09:45 46° 69° (ENE) 14:14:42 436.795 MHz FM
PCSat 20 Sep 14:21:36 14:26:06 26° 316° (NW) 14:30:39 145.825 MHz
Oscar 16 20 Sep 14:23:43 14:28:47 54° 260° (W) 14:33:55 437.025 USB, Beacon 2401.1428
Oscar 10/S400 20 Sep 14:28:22 14:39:00 15° 145° (SE) 14:48:43 145.825 - 145.975 CW/USB, Beacon 145.810 USB
AO-Echo 20 Sep 14:30:31 14:35:16 87° 75° (ENE) 14:39:59 ?
AO-7 20 Sep 14:39:37 14:45:31 22° 49° (NE) 14:51:24 29.400 - 29.500 MHz
Gurwin Techsat 1B 20 Sep 15:01:41 15:06:57 71° 73° (ENE) 15:12:16 435.225 FM
ITAMSAT 1 20 Sep 15:08:57 15:13:56 49° 260° (W) 15:18:59 435.822 SSB
Uribyol 2 20 Sep 15:13:05 15:17:58 43° 262° (W) 15:22:54 436.500 FM
JAS-1B 20 Sep 15:26:02 15:34:04 44° 261° (W) 15:40:54 435.800 - 435.900 CW/SSB
Oscar 19 20 Sep 15:26:21 15:29:35 17° 270° (W) 15:32:50 437.125 CW, 437.150 USB
RS-15 20 Sep 15:27:26 15:37:11 37° 253° (WSW) 15:47:18 29.354 - 29.394 USB, Beacon 29.352 USB
TMSAT-1 20 Sep 15:38:11 15:43:28 75° 257° (WSW) 15:48:48 436.925 FM
Uosat F 20 Sep 15:42:12 15:46:10 24° 63° (ENE) 15:50:08 435.120 FM
Sapphire 20 Sep 15:42:26 15:43:48 11° 333° (NNW) 15:45:11 437.095 MHz 1200 baud AX-25 AFSK
AO-27 20 Sep 15:45:23 15:49:29 24° 267° (W) 15:53:38 436.795 MHz FM
AO-Echo 20 Sep 16:14:11 16:14:42 10° 272° (W) 16:15:12 ?
AO-7 20 Sep 16:28:51 16:37:10 84° 70° (ENE) 16:45:30 29.400 - 29.500 MHz
Gurwin Techsat 1B 20 Sep 16:44:20 16:47:28 16° 271° (W) 16:50:37 435.225 FM
OPAL 20 Sep 16:46:54 16:48:17 11° 89° (E) 16:49:39 ?
JAS-2 20 Sep 16:58:29 17:02:04 19° 60° (ENE) 17:05:40 435.800 - 435.900 CW/SSB, 435.910 FM
Uosat F 20 Sep 17:19:55 17:24:41 45° 261° (W) 17:29:30 435.120 FM
Saudisat 1A 20 Sep 17:43:08 17:47:30 68° 122° (ESE) 17:51:54 436.775 MHz
MaSat-1 20 Sep 17:43:48 17:47:33 40° 56° (NE) 17:50:46 437.345 MHz
Hamsat 20 Sep 17:50:18 17:54:24 42° 71° (ENE) 17:58:30 145.90 MHz
KITSAT 1 20 Sep 18:08:12 18:12:00 14° 99° (E) 18:15:47 435.175 FM
OPAL 20 Sep 18:22:42 18:27:55 86° 107° (ESE) 18:33:01 ?
AO-7 20 Sep 18:24:48 18:30:52 22° 269° (W) 18:36:58 29.400 - 29.500 MHz
JAS-2 20 Sep 18:41:37 18:46:46 57° 259° (W) 18:51:54 435.800 - 435.900 CW/SSB, 435.910 FM
SO-67 20 Sep 18:41:40 18:44:04 18° 67° (ENE) 18:46:28 435.3500 MHz FM
STRAND 1 20 Sep 19:06:05 19:09:39 19° 91° (E) 19:13:12 ?
Sapphire 20 Sep 19:15:19 19:16:38 11° 27° (NNE) 19:17:56 437.095 MHz 1200 baud AX-25 AFSK
MaSat-1 20 Sep 19:21:45 19:23:43 14° 259° (W) 19:25:33 437.345 MHz
Saudisat 1A 20 Sep 19:24:17 19:27:32 20° 322° (NW) 19:30:48 436.775 MHz
Hamsat 20 Sep 19:27:22 19:30:32 19° 268° (W) 19:33:42 145.90 MHz
PCSat 20 Sep 19:41:04 19:44:15 16° 35° (NE) 19:47:26 145.825 MHz
KITSAT 1 20 Sep 19:57:55 20:05:56 71° 118° (ESE) 20:13:59 435.175 FM
OPAL 20 Sep 20:03:14 20:06:04 15° 305° (NW) 20:08:53 ?
HO-68 20 Sep 20:03:27 20:09:22 30° 58° (ENE) 20:15:19 435.675 MHz FM
SO-67 20 Sep 20:13:52 20:16:54 28° 264° (W) 20:19:58 435.3500 MHz FM
STRAND 1 20 Sep 20:44:10 20:49:13 58° 289° (WNW) 20:54:15 ?
Sapphire 20 Sep 20:56:30 21:01:38 40° 50° (NE) 21:06:44 437.095 MHz 1200 baud AX-25 AFSK
Oscar 11 20 Sep 21:04:11 21:07:11 19° 64° (ENE) 21:10:12 145.825 FM, Beacon 2401.500 USB
UKube-1 20 Sep 21:20:53 21:24:51 37° 69° (ENE) 21:28:51 145.840 MHz, 145.915 MHz
PCSat 20 Sep 21:23:18 21:28:44 67° 56° (NE) 21:34:07 145.825 MHz
HO-68 20 Sep 21:49:35 21:56:37 62° 257° (WSW) 22:03:44 435.675 MHz FM
SO-50 20 Sep 21:51:09 21:54:18 19° 111° (ESE) 21:57:31 436.795 FM
KITSAT 1 20 Sep 21:54:45 22:02:00 35° 320° (NW) 22:09:17 435.175 FM
